Meteo Giornale » Osservazioni meteo Stati Uniti (USA) » Hawthorne
ore: 10:53 - Osservazioni Meteo Hawthorne
Lat. 33° 55' N Lon. 118° 19' W Alt. 19 metri s.l.m.
23 °C
Sereno
Temp. 24 Ore
19 °C
27 °C
Nord
5.5 Km/h
Dew point 16 °C
Umidità 64 %
Visibilità 14 Km
Il sole sorge alle ore 06:27
Il sole tramonta alle ore 19:19
| Data e Ora | Cielo e Fenomeni | T °C | DP °C | Um. % | Pres. hPa | Vis. km | Vento km/h | |
|---|---|---|---|---|---|---|---|---|
| Oggi h: 10:53 | Sereno | 23 | 16 | 64 | 1016 | 14 | N 5.5 | |
| Oggi h: 10:14 | Nuvoloso | 23 | 16 | 64 | 1016 | 13 | O 7.4 | |
| Oggi h: 09:53 | Coperto | 22 | 16 | 68 | 1016 | 14 | N 7.4 | |
| Oggi h: 08:53 | Molto Nuvoloso | 21 | 16 | 73 | 1016 | 10 | N 0 | |
| Oggi h: 08:25 | Molto Nuvoloso | 20 | 16 | 77 | 1015 | 10 | N 0 | |
| Oggi h: 07:53 | Sereno | 20 | 16 | 77 | 1015 | 10 | N 5.5 | |
| Oggi h: 06:53 | Sereno | 19 | 16 | 82 | 1015 | 10 | N 0 | |
| Oggi h: 05:53 | Sereno | 19 | 16 | 82 | 1014 | 10 | N 0 | |
| Oggi h: 04:53 | Sereno | 19 | 16 | 82 | 1014 | 10 | N 0 | |
| Oggi h: 03:53 | Sereno | 19 | 16 | 82 | 1014 | 10 | N 0 | |
| Oggi h: 02:53 | Sereno | 19 | 16 | 82 | 1014 | 10 | N 0 | |
| Oggi h: 01:53 | Sereno | 20 | 16 | 77 | 1014 | 10 | N 5.5 | |
| Oggi h: 00:53 | Sereno | 20 | 16 | 77 | 1014 | 10 | O/NO 7.4 | |
| Ieri h: 23:53 | Sereno | 20 | 16 | 77 | 1014 | 10 | N 5.5 | |
| Ieri h: 22:53 | Sereno | 21 | 17 | 77 | 1014 | 10 | O 9.3 | |
| Ieri h: 21:53 | Sereno | 21 | 17 | 77 | 1014 | 10 | O 16.7 | |
| Ieri h: 20:53 | Sereno | 21 | 17 | 77 | 1013 | 10 | O/NO 7.4 | |
| Ieri h: 18:53 | Sereno | 23 | 17 | 68 | 1012 | 10 | O 20.3 | |
| Ieri h: 17:53 | Sereno | 24 | 17 | 64 | 1012 | 10 | O 22.2 | |
| Ieri h: 16:53 | Sereno | 25 | 17 | 61 | 1012 | 10 | O/SO 20.3 | |
| Ieri h: 15:53 | Sereno | 26 | 17 | 57 | 1012 | 10 | O/SO 20.3 | |
| Ieri h: 15:41 | Foschia | 26 | 17 | 57 | 1012 | 5 | O 16.7 | |
| Ieri h: 13:53 | Sereno | 27 | 17 | 54 | 1013 | 10 | O 16.7 | |
| Ieri h: 12:53 | Sereno | 26 | 18 | 61 | 1013 | 10 | O 16.7 | |
| Ieri h: 11:53 | Sereno | 26 | 18 | 61 | 1014 | 10 | O 13 | |



